KLEX Airport Diagram

We have created a template for each of the higher traffic airports in the vZID airspace. They include KCMH, KCRW, KCVG, KDAY, KIND, KLEX and KSDF. You wil find usefull information including the airport diagram, weather, and specific airport procedures.

KLEX Weather

[Source: ADDS]
METAR
KLEX 230154Z 09008KT 10SM CLR 07/M01 A3024 RMK AO2 PRESFR SLP243 T00671011 =
KLEX 222328Z 2300/2324 07010KT P6SM OVC060 FM230300 07008KT P6SM -SHRA OVC040 TEMPO 2307/2309 BKN025 FM230900 10007KT P6SM -SHRA OVC014 FM231200 12009KT 5SM SHRA BKN007 OVC014 FM231900 16014G23KT 6SM -SHRA BR VCTS OVC014CB
TAF
KLEX 222328Z 2300/2324 07010KT P6SM OVC060 FM230300 07008KT P6SM -SHRA OVC040 TEMPO 2307/2309 BKN025 FM230900 10007KT P6SM -SHRA OVC014 FM231200 12009KT 5SM SHRA BKN007 OVC014 FM231900 16014G23KT 6SM -SHRA BR VCTS OVC014CB =

KLEX Operations

Calm wind runway at KLEX is Runway 22, up to and including 10kts.

Default scenery shows Runway 8/26, which crosses Runway 22. When taxiing to Runway 22, clearance to cross Runway 26 not required.

Updated scenery available at www.flightsim.com.

 

JSN Epic template designed by JoomlaShine.com